Regional Weather Roundup
Issued by NWS

Home | Current Version | Previous Version | Text Only | Print | Product List | Glossary Off
Versions: 1 2 3 4 5 6 7 8 9 10 11 12 13 14 15 16 17 18 19 20 21 22 23 24 25 26 27 28 29 30 31 32 33 34 35 36 37 38 39 40 41 42 43 44 45 46 47 48 49 50

000
ASUS45 KSLC 310610
RWRUT

UTAH REGIONAL WEATHER ROUNDUP
NATIONAL WEATHER SERVICE SALT LAKE CITY UT
1200 AM MDT FRI JUL 31 2015

UTZ001>011-023>025-310700-

NORTHERN UTAH

CITY           SKY/WX    TMP DP  RH WIND       PRES   REMARKS
BRIGHAM CITY   CLEAR     72  36  26 SW5       30.23S
HILL AFB       CLEAR     73  31  21 E14       30.26R
LOGAN          CLEAR     62  42  47 NE3       30.26R
OGDEN          CLEAR     70  32  24 S7        30.23R
PROVO AIRPORT  CLEAR     63  41  45 CALM      30.24S
SALT LAKE CITY PTCLDY    73  32  22 S7        30.20F
VERNAL         CLEAR     69  29  22 W5        30.26S
WENDOVER       PTCLDY    79  27  14 N6        30.23S
HEBER CITY     CLEAR     52  32  46 SE5       30.34S
WEST JORDAN    CLEAR     66  30  26 CALM      30.24F

$$

UTZ012>022-026-027-310700-

SOUTHERN/CENTRAL UTAH

CITY           SKY/WX    TMP DP  RH WIND       PRES   REMARKS
BLANDING       MOCLDY    71  50  47 NE5       30.42S
BRYCE CANYON   CLOUDY    62  44  51 W3        30.47S
CEDAR CITY     MOCLDY    72  37  28 S5        30.28R
DELTA          PTCLDY    74  23  15 N8        30.23S
HANKSVILLE     PTCLDY    77  23  13 CALM      30.20R
MILFORD        PTCLDY    73  21  14 NW13      30.22S
MOAB/CYNLANDS  CLEAR     71  21  15 W9        30.16R
PRICE          CLEAR     75  18  11 CALM      30.31S
ST GEORGE      CLEAR     88  48  25 SW9       30.09S
KANAB          CLOUDY    72  52  49 CALM      30.31R

$$

REGIONAL REPORTS     COLORADO/ARIZONA

CITY           SKY/WX    TMP DP  RH WIND       PRES   REMARKS
CRAIG, CO      CLEAR     52  33  48 CALM      30.35R
GRAND JUNCTION PTCLDY    69  30  23 E7        30.20R
RIFLE          CLEAR     65  32  29 SE6       30.28R
MONTROSE       PTCLDY    69  37  30 SE12      30.30R
CORTEZ         CLEAR     66  55  67 VRB5      30.37R
PAGE, AZ       MOCLDY    84  50  30 S10       30.19R
GRAND CANYON   CLOUDY    68  47  46 CALM      30.40R
KINGMAN        CLOUDY    77  57  50 SE6       30.14R
FLAGSTAFF      MOCLDY    55  54  96 CALM      30.44S

$$

REGIONAL REPORTS    NEVADA/IDAHO/WYOMING

CITY           SKY/WX    TMP DP  RH WIND       PRES   REMARKS
LAS VEGAS, NV  CLOUDY    92  53  26 SW9       30.00F
ELY            MOCLDY    67  22  18 VRB3      30.34R
ELKO           PTCLDY    76  20  12 NE9       30.28R
POCATELLO, ID  CLEAR     60  36  40 CALM      30.25S
BURLEY         PTCLDY    59  41  51 SW5       30.22S
EVANSTON, WY   CLEAR     65  26  23 N3        30.46R
ROCK SPRINGS   PTCLDY    62  17  17 E7        30.40R
KEMMERER       CLEAR     59  28  31 NW12      30.46S

$$



USA.gov is the U.S. government's official web portal to all federal, state and local government web resources and services.